Hourly Data Report for January 18, 2013

BAGOTVILLE A
QUEBEC

48°20'00.000" N
71°00'00.000" W
159.10 m
7060400
71727
YBG

Download Data

Hourly Data (January 2013)
Hourly Data Report for January 18, 2013
TIME
LST
Temp Definition
°C
Dew Point Definition
°C
Rel Hum Definition
%
Precip. Amount Definition
mm

Wind Dir Definition
10's deg

Wind Spd Definition
km/h
Visibility Definition
km
Stn Press Definition
kPa
Hmdx Definition


Wind Chill Definition


Weather Definition


00:00 -30.2 -37.3 50   27 4 24.1 100.18   -35 Clear
01:00 -32.1 -40.3 44   22 7 24.1 100.13   -40 Clear
02:00 -31.9 -37.3 59   20 7 24.1 100.19   -39 Clear
03:00 -31.4 -36.6 60   19 4 24.1 100.15   -36 Clear
04:00 -29.9 -34.7 63   9 13 24.1 100.10   -40 Clear
05:00 -30.8 -35.9 61   11 4 24.1 100.16   -35 Clear
06:00 -30.9 -36.0 61   11 6 24.1 100.19   -38 Clear
07:00 -30.7 -35.7 61     0 40.2 100.21     Clear
08:00 -31.3 -36.5 60     0 40.2 100.25     Mainly Clear
09:00 -27.2 -33.0 58   14 4 40.2 100.27   -31 Mainly Clear
10:00 -26.0 -28.8 77   9 4 24.1 100.23   -30 Snow Showers
11:00 -24.6 -27.2 79   10 6 12.9 100.15   -30 Snow Showers
12:00 -23.1 -25.6 80   2 4 19.3 100.11   -27 Snow Showers
13:00 -21.5 -24.7 75   36 6 12.9 100.09   -27 Snow Showers
14:00 -18.9 -24.1 63   30 15 40.2 100.05   -28 Mainly Clear
15:00 -18.7 -24.7 59   31 15 40.2 100.09   -27 Mainly Clear
16:00 -18.3 -24.2 60   28 11 40.2 100.06   -26 Mainly Clear
17:00 -19.4 -24.8 62   30 4 24.1 100.07   -23 Mainly Clear
18:00 -22.2 -25.5 74   26 4 24.1 100.06   -26 Mainly Clear
19:00 -20.0 -23.0 77   27 13 24.1 100.09   -28 Clear
20:00 -18.8 -22.4 73   26 11 24.1 100.09   -26 Clear
21:00 -19.2 -23.7 68   28 11 24.1 100.08   -27 Clear
22:00 -18.6 -22.9 69   28 9 24.1 100.04   -25 Mainly Clear
23:00 -21.7 -25.0 75   12 11 24.1 99.99   -30 Cloudy

Notes on Data Quality.

Legend

  • E = Estimated
  • M = Missing
  • NA = Not Available*
  • [empty] = Indicates an unobserved value
Date modified: